Location: Casilda
(33.0440°S, 61.1680°W)
Time: 14:31:02
(UTC-03:00)

ISS - Pass Details

Date: 28 June 2017
Orbit: 401 x 408 km, 51.6° (Epoch: 28 June)

Event Time Altitude Azimuth Distance (km) Brightness Sun altitude
Rises 20:17:37 0° 281° (WNW) 2,335 1.4 -26.4°
Reaches altitude 10° 20:20:06 10° 263° (W) 1,479 -0.1 -26.9°
Enters shadow 20:21:29 17° 241° (WSW) 1,145 -1.0 -27.2°
